Tracking 29892 objects as of 21-Nov-2024
HD Live streaming from Space Station
objects crossing your sky now

STARLINK-4443

Track STARLINK-4443 now!
10-day predictions
STARLINK-4443 is classified as:


NORAD ID: 53508
Int'l Code: 2022-099AV
Perigee: 567.2 km
Apogee: 573.1 km
Inclination: 97.7 °
Period: 95.9 minutes
Semi major axis: 6941 km
RCS: Unknown
Launch date: August 12, 2022
Source: United States (US)
Launch site: AIR FORCE WESTERN TEST RANGE (AFWTR)
Your satellite tracking list
Your tracking list is empty




NASA's NSSDC Master Catalog

Two Line Element Set (TLE):
1 53508U 22099AV  24325.77005563 -.00000249  00000-0 -14776-4 0  9998
2 53508  97.6546  84.3592 0004299 243.5383 116.5400 15.01260800124886
Source of the keplerian elements: AFSPC